sat.trackr.live / text

‹ back to catalog

SITRO-AIS 38

NORAD 61786 · 2024-199BD

PAYLOAD ACTIVE UNKNOWN

§ Identity

Operator
Country
CIS
Launch date
2024-11-04
Launch site
VOSTO
Launch vehicle
Mass (kg)
RCS (m²)

External: N2YO · Heavens-Above · Gunter

§ Orbital elements

Epoch: 2026-09-22T21:30:52.412544Z

Period
92.64 min
Inclination
97.2755°
Eccentricity
0.0005329
Mean motion
15.54419418 rev/d
Perigee alt
400.2 km
Apogee alt
407.5 km
Semi-major
6,782.0 km
B*
4.4394e-4
RAAN
141.4053°
Arg perigee
299.2221°
Mean anomaly
60.8500°
Rev number
14,946

§ Raw data

SITRO-AIS 381 61786U 24199BD  26265.89643996  .00029118  00000+0  44394-3 0  99952 61786  97.2755 141.4053 0005329 299.2221  60.8500 15.54419418149464

JSON: /api/v1/satellites/61786 · /tle

For live sub-satellite position, see the globe view (requires WebGL).

§ Visibility from observer

Set your observer location to see the next 7 days of passes ≥ 10°. The values pass through the URL so the page stays shareable.

No JS? Fill the form by hand. The geolocation button needs JavaScript.

§ Radio — SatNOGS DB

ModeDescriptionDownlinkUplink
GMSK USP Mode U - GMSK2k4 - USP 401.045 MHz

1 transmitter · refreshed weekly from db.satnogs.org